Location: Northcutt
(34.7304°N, 84.4305°W)
Time: 19:49:28
(UTC+00:00)

Transit 2A Rocket - Pass Details

Date: 11 October 2022
Orbit: 589 x 911 km, 66.7° (Epoch: 03 December)

Event Time Altitude Azimuth Distance (km) Brightness Sun altitude
Rises 08:03:09 0° 177° (S) 2,855 - -44.3°
Reaches altitude 10° 08:05:43 10° 164° (SSE) 1,929 - -43.8°
Maximum altitude 08:09:13 24° 109° (ESE) 1,218 - -43.2°
Drops below altitude 10° 08:12:41 10° 55° (NE) 1,917 - -42.5°
Exits shadow 08:13:51 - 47° (NE) 2,325 8.2 -42.3°
Sets 08:15:14 0° 41° (NE) 2,833 8.7 -42.0°
